www.pogodaiklimat.ru

Погода и климат >> Архив погоды >> Иран >> Nehbandan


ПОГОДА в Nehbandan

  • Прогноз погоды в Nehbandan
  • Монитор погоды в Nehbandan
  • Климат города

АРХИВ ПОГОДЫ в Nehbandan

Время (UTC), дата Ветер
(напр.,м/с)
 
Видим.   Явления Облачность Т
(С)
Тd
(С)
f
(%)
Тe
(С)
Тes
(С)
Комфортность P
(гПа)
Po
(гПа)
Тmin
(С)
Tmax
(С)
R
(мм)
R24
(мм)
S
(см)
06 23.04 С 9 20 км ясно +25.6 -15.4 6 +22 +24 комфорт 1012.8 885.2
09 23.04 С 4 20 км ясно +29.5 -20.8 3 +25 +38 комфорт 1011.4 883.6
12 23.04 СВ 3 20 км ясно +30.0 -33.3 1 +25 +30 комфорт 1009.2 881.6
15 23.04 С 3 20 км ясно +26.4 -36.7 1 +22 +22 комфорт 1008.6 881.6 +30.4
18 23.04 штиль 0 15 км ясно +21.4 -22.6 4 +19 +19 1009.0 881.7
21 23.04 штиль 0 15 км ясно +16.4 -18.0 8 +17 +17 1007.9 880.6
00 24.04 штиль 0 15 км ясно +13.4 -15.9 12 +14 +14 1007.1 879.4
03 24.04 ЮЗ 2 20 км ясно +15.3 -18.1 8 +16 +18 1008.4 880.2 +12.1
06 24.04 штиль 0 20 км ясно +27.4 -27.4 2 +23 +44 комфорт 1007.2 880.5
09 24.04 СВ 2 20 км ясно +32.2 -30.4 1 +27 +46 жарко 1005.1 878.6
12 24.04 ЮЗ 3 20 км ясно +32.8 -31.8 1 +28 +33 жарко 1003.7 876.9
15 24.04 штиль 0 20 км ясно +28.4 -21.7 3 +24 +24 комфорт 1004.6 877.2 +33.6
18 24.04 штиль 0 15 км ясно +24.8 -21.3 4 +21 +21 комфорт 1005.2 879.4
21 24.04 штиль 0 15 км ясно +17.0 -18.0 8 +17 +17 1005.4 879.2
00 25.04 штиль 0 15 км ясно +14.5 -15.0 12 +15 +15 1005.8 879.0
03 25.04 штиль 0 20 км ясно +20.0 -16.3 7 +19 +23 1007.0 880.3 +13.7
06 25.04 штиль 0 20 км 1/0
[Ac trans]
+32.0 -21.7 2 +27 +47 жарко 1005.8 880.8
09 25.04 ЮВ 3 20 км ясно +34.0 -26.2 1 +29 +45 жарко 1005.0 879.0
12 25.04 штиль 0 20 км 4/1 1200 м
[Cu hum Ac trans]
+34.4 -24.9 1 +29 +36 жарко 1003.6 877.4
15 25.04 В 2 15 км 3/1 1200 м
[Cu hum Ac trans]
+28.6 -25.5 2 +24 +24 комфорт 1004.7 878.3 +35.6
18 25.04 штиль 0 15 км ясно +23.7 -13.3 8 +21 +21 комфорт 1004.4 879.5
21 25.04 штиль 0 15 км ясно +19.3 -11.0 12 +19 +19 1004.0 879.3
00 26.04 штиль 0 15 км ясно +17.7 -9.8 14 +18 +18 1004.5 878.9
03 26.04 штиль 0 20 км 1/0
[Ac trans]
+19.6 -7.1 16 +19 +23 1006.8 880.2 +16.3
06 26.04 С 5 15 км 1/0
[Ci fib]
+28.2 -5.4 11 +25 +33 комфорт 1006.9 881.0
09 26.04 штиль 0 15 км 3/0
[Ci fib]
+31.8 -8.2 7 +28 +52 опасность
солнечного
удара
1006.2 880.2
12 26.04 ЮВ 4 15 км 6/1 1200 м
[Cu hum Cs]
+30.8 -3.6 11 +27 +31 жарко 1005.6 879.2
15 26.04 СВ 3 12 км 3/0
[Ac trans]
+25.4 -0.1 19 +24 +24 комфорт 1007.5 880.3 +32.4
18 26.04 штиль 0 12 км ясно +21.3 +1.8 27 +21 +21 комфорт 1008.1 881.7
21 26.04 штиль 0 10 км ясно +18.5 +1.4 32 +19 +19 1008.2 882.9
00 27.04 штиль 0 12 км ясно +15.6 +1.5 38 +16 +16 1009.3 882.2
03 27.04 штиль 0 8000 м пыль 3/0
[Ac trans Ci fib]
+16.8 +2.2 37 +17 +20 1012.6 884.2 +14.1
06 27.04 С 6 10 км 3/0
[Ac trans Ci fib]
+22.2 +0.8 24 +22 +27 комфорт 1012.7 884.5
09 27.04 В 4 10 км 1/1 1050 м
[Cu hum]
+26.2 +0.8 19 +24 +36 комфорт 1012.2 884.3
12 27.04 ЮВ 5 8000 м пыль 3/1 1050 м
[Sc diur, vesp Ac trans]
+26.0 -0.3 18 +24 +27 комфорт 1012.0 883.5
15 27.04 СВ 2 6000 м пыль ясно +21.6 -0.7 23 +21 +21 комфорт 1013.5 884.2 +27.4
18 27.04 С 5 10 км ясно +17.3 -1.6 28 +17 +17 1015.2 885.9
21 27.04 штиль 0 12 км ясно +13.8 -2.2 33 +14 +14 1015.5 886.5
00 28.04 штиль 0 12 км ясно +11.8 -2.8 36 +12 +12 1015.7 885.9
03 28.04 штиль 0 15 км ясно +13.5 -3.1 31 +14 +17 1017.2 886.7 +11.4
06 28.04 СВ 6 12 км 1/1 1200 м
[Cu hum]
+20.5 -6.5 16 +20 +25 1017.0 887.0
09 28.04 В 3 12 км 3/1 1200 м
[Cu hum Ac trans]
+25.1 -5.9 12 +23 +35 комфорт 1015.0 885.5
12 28.04 В 3 15 км 4/1 1200 м
[Cu hum Ac trans]
+26.7 -7.5 10 +24 +28 комфорт 1013.1 883.7
15 28.04 В 2 12 км 1/1 1200 м
[Cu hum]
+20.9 -8.5 13 +21 +21 комфорт 1015.0 884.5 +27.2
18 28.04 В 3 12 км ясно +17.6 -8.0 17 +18 +18 1015.4 885.6
21 28.04 штиль 0 12 км ясно +15.1 -7.1 21 +15 +15 1014.5 885.1
00 29.04 штиль 0 12 км ясно +12.8 -8.0 23 +13 +13 1014.2 884.9
03 29.04 штиль 0 15 км 3/0
[Ci fib]
+14.5 -9.2 18 +15 +18 1016.2 885.8 +11.3
06 29.04 штиль 0 18 км ясно +23.4 -9.7 10 +21 +42 комфорт 1015.4 886.2
09 29.04 ЮВ 3 20 км 1/0
[Ac trans]
+28.0 -11.5 7 +24 +39 комфорт 1013.1 884.6
12 29.04 штиль 0 20 км ясно +29.2 -18.8 3 +25 +34 комфорт 1012.0 883.4
15 29.04 В 3 18 км 3/0
[Ci fib]
+23.6 -36.0 1 +20 +20 1013.4 883.7 +29.7
18 29.04 штиль 0 15 км ясно +18.7 -23.7 4 +18 +18 1014.3 885.4
21 29.04 штиль 0 15 км ясно +15.4 -22.8 6 +16 +16 884.4
00 30.04 штиль 0 15 км ясно +14.0 -18.3 9 +14 +14 1012.6 884.1

 

Местоположение метеостанции Nehbandan (Иран): широта 31.53 долгота 60.03 высота над уровнем моря 1211 м.

В архиве по умолчанию представлена погода в Nehbandan за последнюю неделю. Архивные данные за месяц целиком и за предыдущие месяцы, начиная с января 2011 года, Вы можете получить, выбрав интересующий диапазон дат из раскрывающегося списка и нажав кнопку "Ввод!".

Внимание! Время в таблицах - всемирное. Для получения местного времени необходимо прибавить поправку, которая в Nehbandan равна 3.5 ч.

Смотрите также архив погоды в соседних городах и на ближайших метеорологических станциях:

Погода в Zabol (Иран) (148 км)
Погода в Birjand (Иран) (168 км)
Погода в Zahedan (Иран) (243 км)
Погода в Bam (Иран) (312 км)
Погода в Kerman (Иран) (325 км)
Погода в Ferdous (Иран) (327 км)
Погода в Heart (Афганистан) (362 км)
Погода в Tabas (Иран) (371 км)
Погода в Nokkundi (Пакистан) (399 км)
Погода в Baft (Иран) (419 км)

Пояснения к столбцам:

Ветер - указаны скорость ветра в м/с - средняя за 10 мин, порывы в срок и между сроками (в фигурных скобках) и направление, откуда дует ветер: С - северный, СВ - северо-восточный, В - восточный, ЮВ - юго-восточный, Ю - южный, ЮЗ - юго-западный, З - западный, СЗ - северо-западный.
Видимость - горизонтальная дальность видимости в метрах или километрах. При видимости от 1 до 10 км при отсутствии осадков обычно наблюдается дымка, при ухудшении видимости до 1 км и менее - туман. В сухую погоду видимость может ухудшаться дымом, пылью или мглою.
Явления - указаны атмосферные явления, наблюдавшиеся в срок или в последний час перед сроком; фигурными скобками обозначены явления, наблюдавшиеся между сроками (за 1-3 часа до срока); квадратными скобками обозначены град или гололедные отложения с указанием их диаметра в мм.
Облачность - указаны через наклонную черту общая и нижняя облачность в баллах и высота нижней границы облаков в метрах; квадратными скобками обозначены формы облаков: Ci - перистые, Cs - перисто-слоистые, Cc - перисто-кучевые, Ac - высококучевые, As - высокослоистые, Sc - слоисто-кучевые, Ns - слоисто-дождевые, Cu - кучевые, Cb - кучево-дождевые. Подробнее классификацию облаков см. в Атласе облаков (PDF).
T - Температура воздуха - температура, измеренная на высоте 2 м над землей.
Td - Температура точки росы - температура, при понижении до которой содержащийся в воздухе водяной пар достигнет насыщения.
f - Относительная влажность воздуха - влажноcть воздуха, измеренная на высоте 2 м над землей.
Te - Эффективная температура - температура, которую ощущает одетый по сезону человек в тени. Характеристика душности погоды. При расчете учитывается влияние влажности воздуха и скорости ветра на теплоощущения человека.
Tes - Эффективная температура на солнце - температура, которую ощущает человек, с поправкой на солнечный нагрев. Характеристика знойности погоды. Зависит от высоты солнца над горизонтом, облачности и скорости ветра. Ночью, в пасмурную погоду, а также при ветре 12 м/с и более поправка равна нулю.
P - Атмосферное давление - приведенное к уровню моря атмосферное давление.
Po - Атмосферное давление - измеренное на уровне метеостанции атмосферное давление.
Tmin - Минимальная температура - минимум температуры воздуха на высоте 2 м над землей.
Tmax - Максимальная температура - максимум температуры воздуха на высоте 2 м над землей.
R - Количество осадков - Количество выпавших осадков за период времени, мм. При наведении курсора мыши на число - период времени, за который выпало указанное количество осадков.
R24 - Количество осадков - Количество выпавших осадков за 24 часа, мм.
S - Снежный покров - Высота снежного покрова, см. При наведении курсора мыши на число - состояние снежного покрова и степень покрытия местности в баллах.